Theta_e
339 340 345 346 341 337 336 335 335 333 333 335 338 341 344 345 347 347 344 343 342 341 343 344 344 344 343 344 344 341 341 345 338 324 321 326 326 325 325 325 326 327 328 329 330 330 331 332 332 332 332 333 333 333 334 334 335 336 335 335 335 335 335 335 335 336 336 336 337 337 338 338 338 338 339 339 340 339 340 341 341 341 341 341 341
341 340 343 343 340 337 335 335 332 331 336 343 344 345 345 345 345 345 344 343 341 341 343 343 343 344 344 345 342 340 344 342 328 320 323 326 326 326 325 325 327 328 328 329 330 330 332 332 332 332 332 332 333 333 334 335 336 336 336 335 335 335 335 335 336 336 336 336 337 337 337 337 338 339 339 339 339 339 340 341 341 341 340 341 340
342 340 341 341 340 337 336 335 331 334 343 347 347 346 347 347 345 345 345 343 343 342 343 344 345 345 344 342 339 342 344 335 321 320 325 326 326 326 325 326 327 328 328 329 330 330 331 332 332 333 333 333 334 334 335 336 336 336 336 335 335 335 336 336 336 337 337 336 337 337 337 338 338 338 338 339 339 340 340 340 340 340 340 340 340
345 342 340 341 342 340 341 338 334 340 347 347 347 348 347 347 346 345 346 345 344 344 344 345 345 344 343 340 340 345 340 326 318 323 326 326 326 325 325 327 328 328 328 329 330 330 331 333 334 334 334 334 335 335 336 336 336 336 336 336 336 336 336 336 337 337 337 336 336 337 337 337 338 338 338 339 339 339 340 340 340 340 340 340 340
347 343 341 342 343 343 346 344 340 344 347 347 348 348 346 347 346 345 347 347 347 346 346 346 344 343 341 340 343 345 333 321 320 324 326 326 326 326 326 327 328 328 328 329 330 331 332 334 335 335 335 335 334 334 334 335 335 335 336 336 336 336 336 336 337 337 337 337 337 337 337 337 338 338 338 338 339 339 339 339 340 340 340 340 340
347 344 341 344 346 347 350 350 345 345 347 348 349 348 346 346 345 346 348 349 348 347 347 346 344 343 341 341 345 341 326 319 322 325 326 326 326 326 326 326 328 329 328 329 329 330 332 335 336 336 336 336 335 334 333 333 334 334 334 334 335 336 337 337 337 337 337 337 337 337 338 337 338 338 338 338 339 339 338 338 339 340 340 340 340
347 344 342 344 348 350 351 351 348 344 346 349 349 348 347 345 344 346 349 351 350 348 348 346 344 342 340 342 346 335 321 320 324 326 327 327 326 326 325 326 328 329 329 329 329 330 332 334 335 336 337 337 336 335 332 332 333 334 333 332 333 334 336 337 337 337 337 337 337 337 337 337 337 337 337 338 339 339 339 339 339 339 339 339 339
348 346 344 345 349 351 350 350 349 346 346 347 349 348 346 345 345 348 351 352 350 349 348 346 344 341 340 345 344 330 319 322 325 326 327 326 326 326 325 326 327 328 329 329 328 329 330 332 334 335 336 338 338 336 333 332 332 332 332 331 332 333 335 337 337 337 336 336 337 337 337 337 337 337 337 338 338 338 338 338 338 338 338 338 338
348 346 345 345 348 351 350 349 348 347 346 346 348 347 344 345 348 350 351 351 349 348 346 345 343 340 342 347 341 325 320 323 325 326 327 326 327 327 326 326 327 327 327 326 324 324 326 330 334 335 336 337 338 337 334 332 332 332 331 331 331 332 334 335 336 336 336 336 336 336 336 336 336 337 337 337 337 337 337 337 338 338 337 337 337
348 347 345 344 347 350 350 350 349 349 348 346 346 346 345 347 349 348 349 347 346 345 344 344 342 340 345 347 335 322 321 324 325 327 327 327 327 327 326 326 325 323 320 319 318 319 320 323 330 335 337 337 337 338 335 332 333 333 332 331 330 331 332 333 335 336 336 336 336 336 336 336 336 337 337 338 338 338 337 337 337 337 336 336 336
348 348 346 345 346 349 351 351 350 349 348 346 346 347 348 348 348 348 347 345 344 344 343 343 341 342 348 345 330 321 322 323 325 327 326 327 327 326 326 324 319 315 313 312 315 318 319 320 324 331 335 337 337 337 336 333 333 333 332 331 330 330 330 331 333 334 335 335 335 335 336 336 336 337 337 338 338 338 338 337 337 336 336 336 335
347 348 347 346 345 348 351 352 350 349 348 347 349 350 351 350 349 347 344 342 342 341 342 342 340 344 349 341 326 320 321 323 325 326 326 327 326 326 325 320 313 310 309 311 315 320 323 325 323 325 330 334 336 336 336 334 333 333 332 330 329 329 330 330 331 333 334 335 334 335 336 336 336 337 337 337 337 337 337 337 336 335 335 335 335
347 348 348 347 344 346 350 353 352 350 349 349 350 350 349 348 345 341 340 339 339 339 340 340 341 347 349 338 324 320 321 322 324 326 327 327 326 325 323 316 310 309 308 311 317 321 324 327 325 323 324 330 333 334 334 333 333 333 331 330 329 329 330 330 330 331 333 334 335 335 335 336 336 336 336 336 336 336 336 336 335 335 335 335 335
347 347 348 347 345 345 348 351 352 351 350 349 347 345 344 342 339 337 337 338 338 338 339 340 342 348 348 335 322 321 321 322 324 326 327 326 325 324 320 313 309 309 309 312 318 322 323 325 325 324 324 328 331 333 332 332 333 333 331 330 329 329 329 329 329 330 331 333 334 334 335 336 336 336 336 336 336 336 335 335 334 334 335 335 334
347 347 347 347 346 344 345 348 350 351 349 346 342 340 339 338 337 336 337 338 339 339 339 340 344 349 346 332 322 321 321 322 325 326 326 325 324 322 316 310 309 308 309 313 318 322 324 325 326 327 327 329 331 331 331 331 332 332 331 330 329 329 329 328 329 330 330 332 334 335 335 335 336 336 336 336 336 335 335 335 334 334 334 334 334
347 346 347 347 347 346 344 345 347 347 345 341 338 337 337 337 337 337 336 338 339 339 339 341 345 350 344 329 322 321 320 322 325 326 325 323 322 319 313 309 309 309 310 314 318 322 325 327 328 329 330 330 330 330 330 331 332 332 331 330 329 329 327 326 327 329 330 330 332 334 335 335 336 336 336 336 336 335 335 335 334 334 334 334 333
347 347 346 346 347 347 344 341 341 340 339 337 337 337 337 336 337 336 337 338 338 338 339 341 346 349 341 327 321 321 320 322 325 325 324 322 320 317 312 309 309 309 310 314 317 321 325 327 328 329 330 330 330 330 330 330 331 331 330 330 329 326 323 323 325 327 328 329 330 332 334 335 335 335 336 336 335 335 335 335 334 334 334 333 333
347 346 346 345 346 345 342 338 337 337 337 337 337 337 337 336 337 336 336 337 338 339 340 342 347 348 338 326 322 321 321 322 323 324 324 321 319 317 313 309 309 309 311 314 317 320 324 327 328 329 329 330 330 330 329 329 330 330 330 330 327 322 319 320 321 323 325 328 329 330 332 335 335 335 335 335 335 335 334 334 334 334 334 334 334
347 346 345 344 343 341 339 337 337 338 338 338 337 338 337 337 337 336 336 338 339 340 340 343 347 347 336 325 322 322 321 321 322 323 324 321 320 319 314 310 308 309 311 314 317 321 324 327 328 329 329 329 329 329 329 329 329 329 330 329 324 319 317 318 318 319 322 324 327 330 332 334 335 336 335 335 335 335 334 334 334 334 334 334 334
346 346 344 343 342 340 339 340 340 340 340 339 339 340 339 338 337 336 337 339 339 340 341 344 348 346 335 325 322 322 321 320 319 321 323 322 319 318 316 311 308 309 311 313 316 321 325 327 328 327 326 325 325 326 326 327 328 329 329 329 325 318 316 316 317 318 319 320 323 327 331 332 334 334 335 335 335 334 333 333 333 334 334 334 334
346 345 345 344 343 343 342 342 342 341 340 340 340 342 341 340 339 338 339 340 340 341 342 345 348 345 333 324 322 321 321 321 319 319 323 321 316 315 317 313 308 308 311 312 315 320 324 326 324 322 321 322 322 323 324 323 324 324 324 326 326 322 316 314 316 318 318 318 320 321 325 330 333 334 334 334 334 334 333 333 334 334 334 333 333
346 346 346 346 346 347 346 345 343 343 342 342 342 344 343 343 343 342 341 341 341 341 343 346 348 343 331 323 323 321 320 320 319 318 321 320 316 316 317 313 308 308 310 311 314 319 323 323 321 319 321 322 324 325 325 324 322 321 320 320 322 320 316 313 314 315 316 317 318 316 317 322 329 332 333 333 333 333 333 332 333 333 332 332 332
347 347 347 348 349 348 347 345 344 344 343 343 344 345 346 346 345 344 342 341 341 342 343 346 348 342 330 323 322 320 318 317 316 316 318 319 318 318 317 313 307 308 309 310 313 316 319 320 319 318 319 320 321 323 325 325 324 323 323 321 319 316 314 313 313 313 314 315 317 317 315 316 323 330 332 333 333 333 332 330 329 327 326 326 326
349 349 349 350 351 350 348 346 344 344 344 345 347 348 349 348 346 345 344 342 342 343 343 346 348 342 330 323 321 322 321 318 315 315 316 318 319 319 317 313 308 307 310 310 311 314 316 318 318 319 319 319 319 321 323 325 326 326 325 324 322 317 315 316 315 315 315 315 316 318 318 316 319 324 326 327 328 327 326 324 322 321 320 319 319
352 353 354 355 354 353 351 348 346 346 346 346 349 349 349 349 348 346 344 343 343 343 343 346 349 342 328 322 322 323 322 319 317 317 316 317 318 318 316 312 308 307 309 309 310 313 316 318 320 321 322 323 323 323 322 322 324 326 326 326 324 321 320 320 320 318 318 317 319 321 321 319 320 321 322 322 322 322 321 320 320 320 320 319 319
354 356 358 359 359 357 355 351 348 348 349 350 352 352 350 350 348 347 345 343 343 342 343 347 346 337 325 323 324 324 321 318 317 316 314 314 315 316 314 311 308 308 309 310 313 317 319 321 322 323 324 325 325 326 325 323 321 322 324 325 325 323 322 323 323 321 320 320 322 323 323 322 321 321 321 321 321 322 322 323 323 323 322 321 320
354 357 360 361 362 360 357 353 350 350 352 353 355 355 354 353 350 347 345 343 343 343 345 347 343 333 325 325 327 327 323 318 316 315 312 311 312 312 311 309 308 308 310 313 318 322 324 324 324 324 324 325 325 325 325 325 323 320 320 322 323 323 323 323 323 322 321 321 322 324 324 323 322 321 321 321 321 321 322 322 323 324 324 323 322
358 359 360 361 362 361 358 355 353 353 355 356 356 356 356 353 351 348 346 343 343 343 345 347 344 336 331 330 330 329 325 319 315 313 312 310 309 309 309 309 308 309 311 316 322 325 326 326 325 325 324 324 324 324 324 324 323 321 319 319 320 320 321 322 322 322 322 321 321 322 323 324 324 323 323 322 321 321 322 322 322 323 324 324 324
361 360 360 359 360 360 358 357 356 357 359 359 359 358 356 354 352 350 347 345 344 343 345 347 344 341 338 336 333 331 328 322 316 314 312 310 308 308 309 309 309 309 312 319 323 325 326 327 327 327 326 324 324 324 323 323 323 322 320 319 319 319 319 319 319 320 319 319 319 320 320 322 323 323 323 322 321 321 321 321 321 321 322 323 325
360 359 360 360 360 361 360 360 360 361 362 361 360 359 356 354 352 350 347 346 344 343 346 345 342 342 342 337 333 331 329 323 317 314 312 310 308 309 309 309 309 310 315 322 325 326 326 327 327 327 327 326 325 323 323 322 322 322 322 321 320 319 318 318 318 318 318 317 317 317 318 319 320 321 322 321 321 321 321 322 322 321 320 320 321
359 360 361 361 361 361 361 362 363 363 363 362 361 359 356 353 351 349 347 346 343 343 345 341 339 342 342 335 331 329 325 320 317 314 312 310 309 309 309 309 309 312 318 324 326 327 327 327 326 326 326 326 326 324 323 323 322 321 321 320 320 320 320 319 319 318 318 318 317 316 317 317 319 320 321 321 321 322 322 323 322 321 320 319 318
359 360 361 362 363 363 363 363 363 363 363 362 360 358 355 353 351 348 347 345 343 343 343 338 337 341 338 331 329 327 322 318 318 315 312 310 309 309 310 309 309 314 321 326 326 326 326 326 325 326 325 325 325 325 324 323 322 322 322 320 319 320 320 319 319 319 319 319 318 317 317 316 317 318 320 321 321 322 322 323 323 321 320 319 318
361 362 363 363 364 363 364 364 363 363 362 360 358 357 355 353 351 348 347 345 343 343 341 337 337 339 334 329 327 324 320 318 318 316 313 311 310 309 309 311 312 315 319 324 325 325 325 325 325 325 324 324 324 324 324 324 323 323 322 318 317 319 320 320 319 319 319 319 319 318 317 317 316 316 318 320 321 321 321 322 322 321 320 319 317
364 366 366 365 363 363 363 363 362 362 361 359 357 356 354 352 351 349 347 345 343 342 340 337 337 335 331 328 326 323 321 320 317 316 314 311 310 309 309 312 315 315 315 319 324 326 325 325 325 324 324 324 324 323 324 323 322 323 322 318 315 318 319 319 319 319 319 319 319 318 318 318 317 317 317 318 320 320 320 320 320 319 319 319 318
366 368 368 367 366 364 363 362 361 361 361 358 357 355 353 351 350 348 346 345 344 342 340 338 336 332 329 327 325 323 323 321 318 316 314 311 310 311 310 312 315 314 314 319 326 327 325 324 325 324 324 324 324 324 323 323 322 323 323 321 318 318 319 319 318 318 319 320 320 318 318 318 318 318 317 318 319 320 319 319 320 320 320 319 318
363 364 364 365 365 364 363 363 362 361 360 357 355 354 352 351 349 347 346 344 343 342 341 339 335 331 328 327 325 323 323 322 320 319 318 316 315 313 310 310 311 310 314 322 327 326 324 325 325 325 325 325 324 324 323 323 322 323 323 323 321 320 319 319 318 317 318 320 320 319 319 319 318 318 318 318 319 319 319 319 320 320 320 319 318
356 356 359 361 362 362 362 361 360 359 358 356 354 353 352 351 349 346 345 344 342 341 341 338 334 331 330 327 326 325 324 323 324 325 326 326 323 316 309 308 309 308 312 322 327 326 324 326 327 326 326 326 325 325 324 323 323 324 324 323 323 322 320 319 317 316 318 320 320 318 319 319 318 318 318 319 319 319 319 319 320 320 320 320 319
351 351 353 356 358 358 358 358 358 357 356 354 353 352 351 350 348 346 344 343 342 341 340 337 334 333 331 328 326 327 326 326 327 328 328 327 324 317 309 307 308 307 310 319 326 326 325 327 327 326 326 326 325 325 325 323 323 324 324 323 324 323 320 318 317 317 318 319 319 319 319 319 319 318 318 319 319 319 319 320 320 320 320 320 320
351 350 350 351 353 352 352 353 353 353 353 352 351 351 350 348 346 345 343 343 342 341 340 337 335 334 331 328 327 327 327 327 327 327 325 323 320 315 310 307 307 306 308 316 326 328 326 327 327 326 326 326 324 324 324 323 323 322 320 320 322 321 315 314 318 319 318 318 319 319 319 319 319 319 318 319 319 319 319 319 320 320 320 320 319
351 350 349 350 351 350 350 351 350 349 350 350 349 349 348 346 345 344 343 342 341 341 340 338 336 333 331 329 328 327 326 326 325 323 322 320 317 314 311 307 307 307 307 313 323 328 327 326 326 326 326 326 324 322 322 322 324 322 316 314 318 317 313 314 318 319 318 317 317 318 319 319 319 319 319 319 319 319 319 319 319 319 320 320 320
349 349 349 350 350 350 350 349 349 348 348 348 348 348 346 345 343 342 342 342 341 341 341 338 336 333 329 328 328 327 325 325 323 321 320 318 315 312 310 307 307 308 307 311 319 325 326 324 323 324 325 324 322 322 321 322 325 324 317 314 317 319 318 318 318 318 318 318 317 317 318 319 319 319 319 319 319 319 320 319 319 319 319 320 320
347 347 348 348 348 348 347 347 346 346 345 345 346 346 344 343 342 341 341 342 342 342 341 339 335 331 328 327 327 327 326 325 324 322 321 319 315 311 309 307 307 308 307 310 315 320 323 323 323 324 325 323 320 320 319 321 324 324 320 317 319 321 321 320 319 319 319 318 317 317 318 318 318 319 319 320 320 320 320 320 320 319 319 319 320
346 345 346 346 346 346 346 345 344 342 341 341 342 343 342 342 341 341 341 342 343 343 343 339 333 329 327 327 327 327 326 326 325 323 322 320 316 311 308 307 307 307 309 313 318 321 324 324 325 325 325 323 320 319 319 320 322 322 320 319 320 321 321 321 320 320 319 317 317 318 318 317 317 319 319 320 320 320 320 320 320 320 319 317 317
344 345 345 346 346 345 344 343 341 339 339 338 339 340 340 340 340 341 342 343 344 344 342 337 331 327 327 327 327 326 326 325 325 324 322 318 314 309 307 307 307 306 309 315 321 325 325 324 325 326 325 322 319 319 319 318 318 319 319 318 319 321 322 321 320 321 321 318 317 317 316 316 317 319 320 320 320 320 320 320 319 320 319 317 315
344 345 345 346 346 345 343 341 340 339 339 338 338 338 339 339 340 341 341 343 344 342 338 332 327 326 326 326 326 325 325 324 323 323 320 315 311 308 307 307 307 306 308 314 321 325 325 323 322 323 323 320 318 318 319 317 315 316 317 317 317 319 321 321 320 321 322 320 318 318 316 316 317 319 320 320 320 319 320 319 319 320 320 318 317
344 346 346 346 345 344 342 341 339 339 340 340 340 340 340 340 341 341 342 343 342 338 332 327 326 326 325 325 325 324 323 322 320 319 316 312 309 308 307 307 307 306 307 312 320 325 325 322 319 319 319 318 316 316 317 317 315 314 315 316 316 318 320 320 320 321 321 321 320 318 315 314 317 319 319 320 320 320 320 320 319 319 319 319 319
344 345 345 345 345 344 343 342 341 341 341 342 343 343 343 343 343 343 342 341 337 331 327 325 325 325 324 324 323 322 320 318 316 315 313 310 308 308 308 307 307 307 306 309 316 322 323 320 316 315 317 318 317 316 316 316 315 314 314 315 317 318 319 319 320 321 321 321 320 318 315 314 316 318 319 319 320 320 320 320 320 319 319 319 319
344 344 345 345 344 344 343 342 342 342 343 343 344 344 344 344 344 343 341 336 330 327 325 325 325 324 323 323 322 320 319 317 315 313 311 309 308 308 308 307 307 307 307 307 310 315 317 314 312 314 317 319 319 318 316 316 316 315 314 315 318 319 319 320 320 321 320 320 319 318 317 316 317 318 318 319 319 319 319 320 320 319 319 319 319
344 344 345 346 345 344 344 343 342 344 345 346 345 345 345 344 343 341 337 331 326 325 325 325 324 324 323 322 321 321 320 318 316 314 312 310 308 308 307 307 308 311 312 311 309 309 310 311 312 315 318 319 319 318 317 316 316 316 314 315 317 319 320 320 320 320 319 319 318 318 318 317 317 317 318 318 318 319 319 319 320 319 319 318 319
342 343 345 346 346 346 345 343 343 344 345 346 347 347 346 345 342 337 331 326 325 324 324 324 323 323 322 322 321 321 321 320 319 317 316 314 311 308 307 308 310 314 317 317 315 313 313 313 315 317 318 318 318 317 316 316 317 317 316 315 315 317 319 320 320 319 319 318 318 318 317 316 316 317 317 317 318 318 319 319 319 319 319 319 320
340 342 342 344 345 346 346 344 343 344 344 345 346 347 347 346 341 334 327 325 325 324 323 323 323 322 322 322 322 322 322 321 321 320 319 317 315 311 308 308 312 317 320 321 320 318 317 317 317 317 318 318 317 317 316 316 317 317 317 316 316 316 317 318 318 317 317 317 318 317 316 315 315 316 317 317 317 318 318 318 319 318 318 319 320
Wind_Speed
26 26 24 24 24 24 24 23 22 21 19 17 15 14 13 13 16 16 13 11 12 13 14 15 16 16 18 19 19 19 18 17 17 16 13 12 12 13 13 12 10 12 14 16 17 17 16 15 14 13 13 12 11 11 10 10 10 9 8 8 7 7 7 5 4 3 1 1 2 3 4 4 3 1 1 3 4 4 4 3 3 4 4 4 4
24 25 24 24 25 24 23 22 21 21 20 17 14 12 12 14 16 15 15 15 15 16 17 17 16 16 18 18 18 17 16 16 15 13 12 11 11 11 11 10 10 12 14 16 16 15 14 14 13 13 13 12 12 12 12 12 11 11 10 10 9 9 8 6 5 4 3 2 2 3 4 4 4 3 3 3 4 5 3 2 3 4 5 5 6
21 24 25 24 24 24 23 21 22 22 20 16 13 11 13 15 15 13 14 17 19 19 17 16 15 16 17 18 18 16 15 14 13 11 10 9 9 10 10 10 10 11 13 15 15 14 13 13 14 14 14 14 14 14 14 15 15 14 12 11 10 9 9 8 6 5 5 5 4 4 4 5 5 5 5 4 4 4 4 3 3 3 3 4 5
21 23 25 24 23 23 20 18 21 22 19 15 13 14 16 18 17 14 12 15 19 19 17 15 15 16 18 19 17 14 13 12 10 9 8 7 8 9 10 9 10 11 13 14 14 13 13 14 15 15 16 16 16 16 16 16 18 17 15 13 11 10 9 8 7 6 5 6 6 6 6 5 6 7 6 5 4 4 3 4 4 4 4 4 4
21 24 24 23 22 22 19 17 20 20 18 16 16 19 20 20 18 14 12 15 17 17 16 14 13 16 18 18 15 12 11 11 9 7 6 6 7 9 9 9 9 10 12 13 13 12 12 13 14 15 15 15 16 16 16 16 17 17 16 14 13 11 10 9 7 6 5 6 7 6 5 5 6 7 7 6 4 4 4 5 5 6 5 5 5
20 23 24 23 22 22 21 20 20 21 19 19 20 22 22 21 18 14 13 15 16 15 14 12 14 16 18 17 13 11 10 8 7 6 5 5 7 8 8 8 8 9 10 11 11 10 10 10 11 13 14 14 15 16 16 16 16 16 16 15 13 11 10 10 8 7 7 6 6 6 6 7 6 7 7 7 6 7 7 6 7 7 6 6 6
19 22 24 24 23 24 23 22 21 22 22 22 22 23 22 21 18 14 13 14 14 13 12 13 15 17 17 15 12 9 8 7 5 5 4 5 6 7 8 7 7 8 9 9 8 8 7 6 8 12 12 12 13 14 15 15 15 16 16 16 14 11 9 9 9 8 7 7 7 8 8 9 9 9 9 7 7 9 8 7 9 10 9 9 8
19 22 25 25 25 25 23 22 23 25 26 26 25 23 21 19 17 14 12 12 13 13 14 15 17 17 16 13 11 9 7 6 4 4 4 4 5 7 7 6 6 6 6 6 6 7 6 5 7 10 10 10 11 12 14 14 14 15 16 17 16 13 11 9 8 9 9 8 8 9 10 10 10 10 9 8 9 10 9 9 12 12 10 11 11
20 21 25 27 27 26 22 21 23 26 30 31 28 24 21 19 16 14 13 14 14 15 17 17 17 17 14 11 9 8 6 5 4 3 3 4 5 6 6 5 5 5 5 5 5 6 6 6 7 8 7 7 8 10 11 12 13 15 16 16 16 15 13 11 10 9 10 11 11 11 11 12 13 13 12 11 11 12 12 12 13 11 11 13 14
22 21 24 27 29 26 21 20 20 24 31 33 29 24 21 19 18 17 16 16 17 17 17 17 17 15 12 9 8 7 5 4 3 2 2 4 5 5 5 5 5 5 6 6 6 6 5 4 5 6 6 4 5 7 9 11 12 13 14 14 15 15 14 13 12 11 12 13 13 13 13 15 15 14 14 13 11 12 13 13 13 12 12 16 17
24 23 24 27 30 27 21 19 20 24 29 30 26 23 21 20 19 19 19 18 18 17 17 17 16 13 10 8 7 6 5 4 2 1 1 3 4 5 5 5 5 6 6 6 6 6 4 2 2 5 6 5 4 4 7 10 12 12 12 13 14 14 13 13 13 12 13 13 14 14 15 16 14 13 13 12 11 11 11 12 13 14 15 18 20
25 25 25 27 31 30 23 21 23 26 27 26 23 22 21 20 20 20 20 20 18 18 18 16 14 11 9 7 7 6 5 4 2 0 2 2 3 4 5 5 5 5 6 6 7 6 4 3 2 6 7 6 5 3 4 8 10 11 11 13 14 14 13 13 12 12 12 12 13 14 16 15 13 13 13 13 12 12 11 12 14 18 19 20 22
27 27 27 28 32 32 28 25 24 24 24 23 22 21 21 21 21 21 21 20 19 18 17 15 13 10 8 7 7 6 5 4 2 1 2 2 3 4 5 4 4 5 6 7 7 6 6 5 5 7 7 6 5 4 4 7 9 9 10 12 14 14 13 12 12 11 11 10 11 14 15 15 14 13 13 13 12 11 12 14 17 19 21 21 22
29 29 29 29 32 34 32 29 26 24 23 22 21 21 21 21 21 21 22 21 19 18 17 15 12 10 8 7 7 6 6 4 2 2 3 4 4 5 4 4 4 6 7 7 8 8 8 8 8 8 7 6 4 4 4 6 7 8 9 10 11 13 14 13 11 10 10 9 11 13 14 14 13 13 12 12 11 11 13 15 17 19 20 20 19
31 30 30 30 31 33 34 32 29 27 25 23 23 22 21 21 20 21 22 21 19 18 16 14 12 10 8 8 7 7 6 4 3 4 4 5 6 5 4 4 4 5 7 8 9 10 10 10 10 9 8 8 7 5 6 7 7 7 7 8 10 12 14 13 12 10 9 9 10 12 13 14 13 12 11 11 11 13 13 14 16 18 18 18 17
33 31 30 30 30 32 33 33 32 30 27 26 25 24 23 22 21 22 22 22 20 19 17 15 12 10 9 9 8 7 6 5 4 5 6 6 6 5 4 4 4 5 7 9 10 11 11 10 10 10 10 10 9 8 8 8 7 6 5 6 9 13 15 14 13 11 10 9 10 10 12 13 13 12 10 10 11 12 12 13 14 15 16 17 16
35 33 31 30 30 30 31 32 31 30 28 27 26 26 25 23 22 22 23 23 22 21 19 15 12 11 10 9 9 8 7 6 6 6 7 7 6 5 4 4 5 6 8 9 10 12 13 12 12 12 11 11 10 9 9 8 7 6 5 7 11 14 15 16 16 14 12 10 10 10 10 11 11 11 10 9 10 11 11 12 13 12 14 16 16
35 33 31 30 30 30 31 30 29 28 28 27 27 27 26 25 24 23 23 24 23 22 19 16 13 12 11 10 9 8 7 7 7 7 8 7 6 6 5 5 6 7 8 9 11 13 14 15 14 13 13 12 10 9 8 7 7 7 6 7 12 15 17 18 19 18 16 14 12 10 9 8 9 10 9 9 10 9 9 11 11 10 12 14 15
34 33 31 29 29 30 30 29 28 28 27 27 27 28 27 26 25 24 25 25 24 22 19 16 14 13 12 11 10 9 8 7 7 8 9 8 7 6 6 6 7 7 8 9 12 13 15 16 16 15 13 12 10 9 8 8 8 8 7 8 13 16 17 19 20 20 19 18 15 12 10 8 8 9 10 9 9 9 8 9 9 8 10 12 13
33 31 30 29 29 30 30 29 28 27 27 27 28 29 29 28 27 26 26 26 25 23 20 16 15 14 13 12 11 10 9 8 8 9 10 9 7 5 8 8 7 7 8 9 12 14 16 17 17 16 15 15 14 13 12 10 9 8 7 9 12 14 15 17 19 21 21 21 19 16 13 10 8 9 9 9 10 10 9 10 9 8 9 11 12
32 31 30 29 29 30 30 29 28 27 27 28 29 30 30 29 28 28 28 27 26 24 20 18 16 15 14 13 12 11 10 9 9 9 10 9 6 6 8 8 7 7 8 9 12 15 16 17 18 18 19 20 19 17 16 14 13 11 9 9 10 10 11 14 17 18 19 21 22 21 18 14 11 10 10 11 11 11 11 11 11 10 10 11 11
31 30 29 28 29 30 30 29 28 28 28 29 30 31 31 30 30 30 29 28 27 24 21 19 18 16 15 14 14 13 12 10 9 9 10 9 7 7 8 8 7 7 7 10 13 15 17 18 19 19 19 18 17 15 14 13 14 14 14 13 11 9 8 10 13 14 16 19 21 22 21 18 15 14 13 14 14 14 14 13 13 13 13 12 12
30 29 28 28 29 30 30 29 30 30 30 30 32 32 32 32 31 30 30 29 28 25 22 20 19 17 17 16 16 14 11 10 10 11 10 9 8 7 8 9 8 7 7 10 13 16 17 18 18 16 15 14 14 12 11 10 10 12 13 13 12 10 9 8 8 9 11 15 19 22 22 20 19 17 16 16 17 16 16 16 16 15 15 15 15
29 29 29 29 30 30 30 30 31 31 31 32 33 34 33 32 32 31 31 30 28 26 24 22 20 19 18 18 18 15 12 12 13 12 11 10 9 8 8 9 10 9 9 11 14 17 18 18 18 17 16 15 15 13 11 10 8 8 9 9 10 11 12 12 11 10 10 11 16 20 21 22 22 22 21 20 18 18 18 18 18 18 18 18 17
31 30 30 30 30 30 31 32 32 32 33 34 34 34 34 33 33 32 31 30 29 27 26 23 21 20 20 20 19 17 14 14 15 14 12 12 11 8 9 10 11 11 12 13 15 17 18 18 17 17 16 15 16 15 14 12 10 7 6 6 7 9 11 13 14 14 12 12 14 17 19 20 20 21 21 21 20 20 20 20 20 19 19 18 18
32 31 30 29 30 31 32 33 34 34 34 35 35 34 34 34 34 33 32 31 30 29 26 24 22 22 22 21 19 17 16 17 17 16 14 13 12 10 11 13 14 13 13 14 16 17 17 17 16 15 14 13 13 13 12 13 12 9 6 6 7 8 8 8 10 12 14 13 14 14 15 16 16 16 17 17 18 18 18 18 18 18 18 17 18
31 29 29 29 30 31 33 35 36 36 37 36 36 35 35 35 34 33 33 33 32 29 27 26 24 23 23 21 18 17 17 18 19 18 16 14 13 13 14 15 16 16 16 16 17 18 17 16 15 14 12 11 10 10 9 9 10 10 9 8 8 8 7 6 6 9 11 13 14 13 13 13 14 14 14 14 13 14 14 14 14 15 15 15 16
29 27 28 29 30 32 34 36 37 38 39 38 37 37 37 36 35 34 34 33 31 28 27 27 26 24 23 21 20 19 19 20 21 18 15 14 15 16 17 18 18 18 18 18 18 18 17 15 14 12 11 10 10 9 8 8 8 9 10 9 9 8 7 6 6 7 8 10 12 12 12 11 11 11 11 11 11 10 10 10 9 9 10 11 13
27 25 27 29 30 32 35 37 38 39 40 39 38 37 36 35 34 33 31 29 27 26 27 28 26 21 18 19 20 18 17 19 20 17 14 14 16 17 18 18 18 19 20 18 18 17 15 13 12 10 10 10 10 9 7 7 7 7 7 8 9 8 7 7 7 7 7 8 9 10 10 10 10 9 9 8 9 9 9 8 8 7 7 8 9
22 23 27 28 30 33 36 38 39 40 40 39 38 37 35 33 33 31 28 26 26 27 29 29 24 16 14 17 18 14 11 14 18 17 15 16 17 17 17 17 18 20 20 19 18 16 14 12 10 9 9 9 9 9 8 7 6 5 4 5 7 7 8 9 9 9 8 8 8 8 8 8 9 8 8 8 8 9 9 8 8 8 8 8 7
21 24 27 29 31 35 37 39 39 39 39 38 38 36 34 31 30 29 28 28 28 29 30 30 24 16 14 15 16 13 11 13 17 17 17 17 18 18 18 18 20 21 21 20 18 16 14 12 11 10 9 9 9 9 9 8 7 5 3 5 7 7 7 8 9 9 8 8 8 8 8 7 8 7 6 6 7 7 8 7 7 7 8 9 8
22 25 27 29 33 37 39 39 39 38 38 37 36 33 31 29 30 31 31 30 30 31 31 30 26 19 15 14 15 15 15 16 17 18 18 18 18 18 18 18 20 22 23 21 19 18 16 14 13 11 9 7 8 9 9 8 7 4 2 3 8 9 8 8 8 7 7 6 6 7 7 6 6 6 6 5 4 6 7 7 6 5 6 8 9
25 26 29 31 34 38 40 39 37 37 37 36 32 30 30 30 31 32 32 31 31 32 32 31 27 21 17 15 15 15 16 17 18 19 19 18 18 18 17 17 19 22 24 22 20 19 18 16 13 11 9 8 8 8 8 7 6 3 1 2 9 12 11 10 9 8 6 6 6 6 6 5 5 5 6 6 4 5 8 8 7 6 4 7 9
27 30 31 31 33 37 38 36 35 34 34 33 31 29 29 30 31 31 32 32 34 33 32 30 27 21 17 17 16 16 16 17 18 19 20 19 19 17 16 16 19 23 25 23 21 20 18 16 14 12 11 10 10 9 8 7 6 4 2 3 9 12 12 11 10 9 8 6 6 6 6 5 5 5 7 8 7 6 7 8 8 6 5 7 10
26 29 30 30 32 34 35 34 33 32 31 30 30 28 28 29 30 31 32 33 34 35 33 30 26 22 19 19 18 17 17 17 18 20 21 20 19 18 17 17 19 23 25 25 22 20 17 16 15 13 12 11 11 10 9 9 8 6 5 5 7 11 12 10 8 10 10 8 6 6 7 6 4 5 7 9 9 7 7 7 7 6 7 8 10
24 25 27 29 31 33 34 33 31 30 29 29 28 27 27 28 29 30 31 32 34 34 33 30 26 23 21 21 19 18 18 17 18 20 20 19 18 18 18 18 19 22 24 25 22 20 18 16 15 14 13 12 12 11 10 10 9 8 7 6 5 7 10 9 7 9 12 10 7 7 7 6 4 2 5 9 9 8 7 7 6 6 7 9 10
20 22 24 26 28 29 30 30 28 28 28 28 27 27 27 27 28 28 30 32 33 33 30 28 25 23 23 23 22 20 19 18 19 19 19 18 17 17 17 18 18 20 24 25 23 20 19 17 16 15 13 13 13 13 11 10 9 8 8 8 6 5 6 6 7 10 14 13 9 8 7 5 3 2 4 8 10 9 9 8 7 7 7 8 9
18 18 20 22 23 24 25 26 28 29 30 29 28 27 26 26 27 28 29 31 32 31 29 27 25 24 24 24 23 21 20 20 21 22 21 20 19 18 18 18 19 21 24 25 23 21 20 18 16 15 14 13 14 15 13 12 10 10 9 10 9 6 5 6 8 11 13 13 12 9 8 6 4 4 6 8 9 10 10 8 7 7 7 7 7
19 17 17 18 19 19 20 22 24 27 29 29 29 27 25 25 27 29 29 30 31 31 29 27 26 25 25 24 24 23 23 24 24 24 23 22 20 19 19 20 20 22 24 25 25 23 21 19 17 15 14 13 14 15 15 12 10 9 10 11 11 9 8 10 11 10 11 12 12 10 8 7 5 5 7 9 8 8 8 8 8 8 8 9 10
21 18 17 17 18 19 20 21 22 23 26 28 28 27 25 25 27 29 29 29 30 30 30 28 27 26 25 24 24 23 24 25 25 24 22 21 20 20 21 22 22 23 24 27 27 25 23 20 17 15 15 14 13 13 14 13 10 9 9 11 11 10 9 12 12 10 9 10 10 11 10 8 6 6 9 10 8 7 7 6 6 6 7 9 9
21 20 19 18 19 19 20 21 22 22 24 27 28 28 27 26 27 28 29 29 29 30 30 28 26 25 25 24 23 22 22 22 22 21 20 19 19 20 22 23 23 23 25 27 28 27 24 21 18 16 15 15 13 13 14 14 12 11 11 12 13 11 10 11 11 10 9 8 9 11 12 10 8 9 10 11 10 8 7 6 5 4 4 6 6
20 20 20 19 19 20 21 21 22 22 24 26 28 29 28 27 27 28 29 28 28 29 29 28 26 25 25 24 23 22 22 21 20 20 20 19 18 20 22 23 23 23 24 26 27 26 24 22 18 16 14 14 14 14 15 15 14 13 13 14 14 13 12 11 10 8 7 8 9 11 11 11 11 12 11 10 9 9 8 7 5 3 2 4 5
19 18 19 19 20 21 22 22 22 23 24 26 28 28 27 26 27 28 28 27 27 28 28 27 26 25 25 24 23 23 24 23 22 21 20 19 19 20 22 23 23 23 24 26 26 25 23 21 17 15 13 14 15 15 15 15 15 14 14 15 16 15 13 12 10 8 7 8 10 10 10 11 12 13 13 12 10 9 8 8 7 4 2 4 5
18 17 17 19 19 20 20 20 19 20 22 24 26 27 26 26 27 28 27 27 27 27 27 26 25 25 25 25 25 26 26 25 24 23 22 20 20 20 22 23 23 24 26 27 26 24 23 20 17 15 14 14 15 15 14 15 17 16 15 14 16 16 15 12 11 9 7 8 10 11 10 11 14 16 15 13 12 11 10 9 8 6 5 4 5
17 17 17 19 20 19 18 17 16 16 18 22 24 26 26 26 27 28 28 27 27 27 27 25 25 25 25 26 26 27 26 26 25 24 23 22 21 21 22 22 23 24 26 27 26 25 23 21 18 17 16 16 15 15 14 15 17 18 16 15 16 18 17 13 11 10 9 9 10 11 12 13 15 17 16 13 12 12 12 11 10 9 7 5 5
17 19 19 20 19 18 16 16 16 16 18 21 23 25 26 27 27 28 28 27 27 27 27 25 24 25 25 25 26 26 26 26 26 25 24 23 23 23 23 22 23 24 26 27 28 27 25 23 21 19 17 16 16 16 15 15 16 17 18 17 18 19 18 16 13 12 12 10 10 11 13 15 17 18 16 14 13 12 11 11 11 10 8 7 6
17 20 21 21 20 19 17 17 18 18 19 21 22 23 25 27 27 27 27 27 27 27 27 25 24 24 25 24 24 25 25 25 25 25 24 24 24 24 24 23 23 23 25 27 29 29 27 26 24 20 17 16 16 16 16 16 16 16 18 19 19 19 19 18 16 15 14 13 11 10 12 15 17 18 18 17 15 12 11 12 12 10 8 8 8
16 19 21 21 22 21 21 21 21 20 20 21 23 24 24 25 27 27 27 28 28 28 27 25 24 24 24 24 24 24 24 23 24 24 23 24 24 24 24 24 24 23 23 25 28 30 29 28 25 22 18 16 16 16 16 16 16 16 17 19 20 19 19 18 16 16 16 14 12 11 12 14 16 17 17 17 16 13 12 13 14 12 9 9 8
16 20 23 23 23 24 23 23 23 23 22 21 22 24 24 25 27 28 28 29 28 28 27 26 25 24 25 25 25 24 22 21 22 22 21 22 23 24 24 24 23 22 22 22 25 28 29 28 25 22 19 17 16 16 16 16 17 17 17 19 20 20 19 18 17 16 16 15 13 12 13 14 16 16 16 16 16 15 13 14 14 13 12 11 10
17 20 23 25 25 25 24 24 24 26 25 24 24 24 24 26 28 30 30 29 28 27 26 26 26 25 25 25 25 23 21 20 20 19 19 20 21 22 24 25 24 22 21 20 21 24 26 26 24 22 20 18 17 16 16 16 17 16 17 18 20 21 20 19 18 17 17 15 14 13 13 15 16 17 16 16 17 17 17 16 16 16 15 14 13
19 20 22 25 26 26 26 25 24 26 28 28 27 26 25 26 28 30 31 30 28 26 26 26 26 26 25 24 23 21 20 19 18 18 18 18 19 21 24 25 24 23 21 20 19 20 22 23 22 20 18 17 16 17 17 16 16 15 16 17 20 22 22 22 20 19 18 17 16 14 14 15 17 18 17 17 17 19 19 19 18 18 17 16 14
Wind_Direction
214 211 209 212 213 210 208 208 207 205 203 203 206 205 208 220 235 252 263 246 236 245 249 254 264 276 283 290 298 305 309 313 318 321 328 337 350 8 17 21 34 55 65 68 71 70 67 67 66 64 61 56 54 51 47 42 35 31 30 29 31 35 33 34 47 58 39 335 321 325 341 345 343 351 22 11 11 17 26 27 14 11 21 29 26
216 213 210 210 212 211 209 208 203 195 190 191 199 207 221 232 240 256 262 254 253 254 253 257 268 278 286 294 303 308 311 315 317 324 334 344 2 20 26 34 54 68 72 76 77 73 71 70 67 64 59 55 53 51 46 39 31 29 31 33 37 41 43 43 53 64 64 46 3 355 353 345 351 16 19 12 17 10 1 12 11 1 4 8 2
217 215 212 210 211 210 209 208 199 190 189 188 190 206 229 236 241 254 262 258 254 251 251 260 272 283 294 304 308 308 311 314 318 329 341 352 13 29 34 46 67 76 78 82 80 77 75 72 69 66 60 56 55 52 47 40 35 35 38 43 45 46 46 45 52 56 47 44 47 41 28 16 18 29 22 11 9 357 356 23 27 12 8 1 354
217 216 213 209 210 208 204 205 199 192 192 194 199 220 231 230 235 249 259 253 247 246 251 261 276 292 303 307 305 305 311 314 321 336 346 0 23 36 43 56 74 81 84 87 87 85 83 77 73 68 62 58 56 52 46 41 39 40 42 44 44 44 46 49 55 55 44 43 48 46 42 38 38 40 34 24 13 5 22 45 45 43 40 22 9
214 215 212 205 205 204 199 201 201 193 194 207 220 227 227 228 235 243 246 242 241 243 250 264 284 298 304 304 302 305 311 314 325 340 350 11 34 43 49 61 77 84 88 92 94 94 89 81 76 70 63 58 54 49 44 40 40 41 42 42 40 41 45 50 55 55 51 52 54 52 52 51 53 52 46 43 42 46 57 68 73 71 63 51 39
210 211 207 198 198 202 204 208 206 197 201 216 224 223 224 231 237 239 241 242 242 245 255 275 292 298 301 301 299 305 311 316 328 340 354 24 43 49 52 62 75 83 90 96 102 106 99 87 79 72 63 56 51 46 41 39 40 42 42 41 39 39 44 50 52 52 54 62 68 68 62 57 59 60 55 56 64 67 69 82 87 79 67 60 51
206 207 204 196 195 202 211 216 214 209 213 218 219 219 224 232 235 238 246 246 245 252 268 285 292 296 300 298 297 306 312 316 329 342 4 33 49 53 55 62 71 79 89 97 107 116 114 98 84 78 66 54 50 46 42 40 40 41 41 40 40 42 48 52 50 48 51 61 70 69 65 60 57 56 57 63 77 78 76 86 88 80 71 65 55
203 203 202 197 196 204 214 221 221 219 220 219 218 222 227 230 232 237 242 243 248 261 275 284 289 296 298 294 297 307 309 314 330 347 14 40 56 59 57 61 70 77 85 90 94 99 101 96 90 85 71 56 50 47 44 41 40 41 41 40 42 45 50 51 49 50 55 63 70 72 73 70 67 68 71 74 80 78 76 82 86 85 83 79 68
202 199 201 199 198 205 215 222 224 224 223 220 220 224 225 224 229 235 238 244 255 265 275 281 288 294 292 289 296 303 302 310 322 343 23 49 64 65 61 60 66 72 77 79 74 74 80 88 98 101 86 64 54 50 48 45 42 42 42 44 47 50 52 55 55 57 61 65 68 70 70 68 66 69 72 69 69 73 80 91 94 92 90 83 71
204 198 201 200 200 206 213 217 221 223 220 217 218 220 219 222 230 238 244 252 260 268 274 280 285 289 285 283 292 293 290 297 303 332 33 64 74 72 65 59 65 75 78 76 67 65 71 83 112 128 123 100 72 61 59 53 46 43 43 47 52 54 55 57 59 61 61 61 64 65 63 61 61 65 68 67 67 74 87 99 102 97 90 82 76
206 201 202 201 202 204 207 209 212 211 209 210 213 215 218 224 232 240 248 255 261 267 271 276 281 281 274 276 284 279 274 278 280 306 46 74 78 78 75 71 76 80 76 69 60 59 62 67 140 152 153 147 121 81 67 60 52 46 46 50 54 57 58 58 60 62 61 62 66 66 63 61 62 67 72 74 77 80 89 100 101 93 86 84 87
209 206 204 203 204 203 199 200 203 202 204 207 211 214 219 225 233 243 250 255 260 264 268 273 276 271 264 268 272 263 259 261 259 300 62 77 84 89 89 87 85 78 69 59 50 47 45 48 124 160 171 171 152 116 78 70 61 50 47 51 56 59 61 62 64 66 66 68 69 68 67 66 68 70 74 78 82 85 92 99 96 89 86 89 95
212 209 206 205 207 205 200 199 202 205 209 213 216 222 227 232 238 245 250 253 256 260 264 269 269 262 257 261 260 250 247 247 237 99 96 118 120 108 104 100 87 72 65 56 50 53 60 72 110 146 166 170 153 130 95 79 70 56 47 50 55 58 60 63 67 69 71 72 71 71 71 70 71 74 76 80 84 91 98 99 95 92 92 94 95
213 211 208 207 209 210 207 205 206 209 215 221 227 232 236 238 242 245 248 251 254 258 264 267 263 253 250 253 249 239 237 234 191 135 145 149 138 125 113 97 78 67 63 59 62 70 77 87 105 125 140 141 133 126 107 90 80 67 54 49 52 54 55 58 65 71 76 77 74 73 73 70 69 74 80 86 90 92 95 96 95 95 95 95 95
214 212 211 210 210 213 214 212 212 215 222 230 235 239 240 241 242 244 247 250 253 257 261 261 254 245 242 244 237 229 228 216 173 156 157 150 141 133 116 92 77 72 68 68 74 81 85 93 103 110 116 114 105 106 112 109 101 86 68 56 52 51 49 51 59 69 77 79 76 74 74 73 71 74 81 89 93 93 92 92 92 94 95 97 96
215 213 213 212 211 215 217 217 219 222 227 233 237 238 239 240 241 243 246 248 250 253 254 252 245 237 236 236 227 221 219 202 176 166 161 154 146 135 119 105 94 81 73 75 82 89 93 99 105 107 107 102 95 95 106 120 121 105 85 67 54 49 50 54 61 68 74 80 82 79 77 76 75 75 80 86 91 94 95 94 93 95 98 101 99
216 214 214 214 214 215 216 217 219 222 226 231 234 236 237 238 240 241 244 247 248 249 247 243 237 231 231 231 222 213 209 195 179 171 167 162 154 144 137 128 105 86 80 83 88 94 100 104 106 107 105 98 93 93 103 123 131 118 100 77 60 58 63 68 69 69 71 76 81 82 80 79 78 78 81 85 89 93 98 99 101 103 103 102 102
216 215 215 215 216 217 216 216 218 222 226 230 233 235 235 236 238 240 244 246 246 244 241 235 230 226 224 223 215 206 202 192 180 177 174 171 167 158 151 137 111 91 86 91 95 97 101 104 105 106 105 102 101 103 110 124 129 120 104 78 70 75 81 79 75 71 69 70 75 82 85 82 79 81 83 84 84 87 91 94 98 105 104 103 105
215 214 214 215 217 219 219 220 222 225 229 232 234 235 235 235 236 239 242 243 241 239 235 230 227 223 218 215 207 198 197 193 185 182 180 182 190 175 148 131 114 101 97 100 101 101 103 104 104 104 104 105 108 114 120 126 124 116 101 79 80 89 92 86 81 78 73 70 72 80 90 93 88 86 89 90 90 90 87 86 90 95 100 103 105
215 214 214 214 217 220 222 224 227 229 231 233 234 234 234 234 236 237 238 237 235 233 230 226 223 219 215 212 203 194 196 196 190 186 184 190 198 166 139 132 121 113 113 110 107 107 107 107 107 107 108 107 108 108 109 115 118 116 105 85 83 93 99 95 89 85 80 76 74 77 88 99 102 97 94 93 92 90 86 85 86 86 91 99 102
217 215 215 217 221 225 227 230 232 233 233 233 233 233 234 234 236 236 235 232 230 229 226 221 218 216 213 208 200 193 193 193 194 191 187 191 185 138 130 137 131 125 127 121 114 113 113 113 113 116 115 112 108 104 102 104 105 103 100 89 84 94 105 102 97 93 88 83 78 77 81 92 102 104 100 94 88 85 83 83 85 87 91 96 100
216 216 219 224 228 230 232 233 233 233 232 232 233 233 233 234 235 235 233 231 230 228 224 218 214 212 208 204 200 195 190 190 200 203 193 188 174 135 131 141 138 137 142 132 122 120 120 121 123 124 123 117 113 110 105 102 98 94 90 87 88 101 113 106 100 98 96 92 86 80 79 86 96 101 99 95 90 86 85 84 86 89 91 92 93
219 223 227 231 233 234 234 234 234 233 232 232 232 232 232 233 233 234 233 230 228 224 220 216 213 209 207 205 198 194 195 198 206 207 198 190 181 155 143 146 142 145 153 141 129 125 124 124 125 126 123 117 113 112 110 106 100 95 92 89 91 98 106 104 100 98 98 98 93 84 78 81 91 98 99 97 95 93 91 89 87 88 89 89 89
227 230 233 235 236 236 235 235 234 233 232 231 231 231 232 232 233 233 231 228 226 223 219 216 212 208 209 205 195 192 200 204 203 201 195 194 194 175 157 155 150 152 157 146 133 128 126 124 121 117 112 106 101 100 102 105 104 102 100 97 95 95 95 91 87 87 94 100 97 91 86 85 88 91 93 93 95 96 96 94 91 90 88 88 87
232 233 235 237 237 237 236 235 234 234 233 232 231 231 231 232 233 231 228 226 224 222 219 215 212 209 207 202 196 196 199 198 200 199 193 197 202 187 167 164 157 156 160 149 136 132 129 126 123 119 114 109 103 97 95 98 104 111 116 111 105 102 97 87 80 77 85 99 103 98 97 96 92 89 88 90 92 95 96 95 94 91 88 86 85
233 234 235 236 238 238 237 235 233 233 232 232 233 233 234 234 233 230 228 226 224 223 220 215 209 207 205 201 199 200 198 195 199 201 195 196 200 189 175 168 160 160 164 153 139 133 129 126 125 123 121 118 114 109 103 99 101 108 126 136 125 112 101 91 84 78 80 92 105 105 102 102 100 97 94 93 93 93 93 93 93 92 90 89 87
232 234 236 237 239 239 237 235 233 231 230 230 231 232 234 235 234 232 230 227 224 221 217 211 207 206 205 205 206 206 202 199 201 201 196 194 194 185 177 171 166 166 168 157 144 135 132 131 130 128 128 128 127 126 122 112 103 102 112 129 133 124 113 103 98 90 83 88 100 107 106 103 101 100 100 99 98 95 92 89 90 92 93 95 95
228 234 237 237 238 237 236 234 232 230 229 228 229 230 232 233 234 235 235 234 230 223 213 210 210 209 209 214 215 209 203 203 203 201 196 193 189 183 178 176 173 172 170 162 151 144 142 141 139 137 137 139 142 142 134 123 116 110 109 112 117 122 124 119 112 108 100 98 102 108 112 111 106 102 100 99 99 97 93 91 92 93 95 99 102
224 233 237 237 238 236 234 233 232 230 228 226 226 229 231 234 236 237 237 238 237 230 221 216 212 213 221 229 225 218 212 209 204 198 196 195 190 184 182 181 176 174 172 168 161 155 151 150 152 154 153 153 157 159 148 130 122 119 118 119 117 116 120 124 122 119 113 110 110 114 118 121 120 117 113 106 99 95 94 93 89 84 83 90 98
224 234 238 238 238 235 232 230 228 228 227 226 226 226 227 229 233 234 234 235 231 229 225 217 211 224 252 246 232 231 236 219 202 194 195 197 189 182 183 182 176 174 174 171 166 162 159 161 170 176 174 171 171 172 166 149 130 119 128 149 144 128 119 119 119 118 116 114 113 114 117 121 126 126 124 120 111 105 106 105 93 79 73 73 83
231 233 236 238 238 235 232 227 224 224 226 227 227 226 224 226 229 229 231 231 227 226 224 216 213 233 258 244 229 225 219 209 204 201 200 196 186 181 183 183 178 176 176 173 170 167 167 173 181 182 177 175 176 178 180 173 156 137 142 174 177 163 142 132 126 124 126 124 119 117 117 120 128 134 132 130 126 122 125 125 113 93 76 63 66
239 236 235 236 236 234 229 225 222 222 223 224 225 228 229 230 230 226 224 225 226 226 221 215 218 231 236 229 228 219 203 200 208 210 205 196 187 184 185 184 182 180 179 177 175 174 173 174 176 176 177 179 181 183 185 182 174 162 139 178 185 182 171 158 147 140 144 145 136 131 126 120 124 139 148 146 136 137 145 148 140 118 81 52 56
240 238 234 232 232 230 226 223 222 222 224 225 227 231 233 232 230 227 224 222 224 225 220 217 222 229 223 218 219 212 202 203 208 210 208 199 191 190 190 188 187 188 187 186 183 180 178 178 178 178 184 197 203 197 190 188 189 196 294 213 193 190 185 179 171 165 164 166 162 154 143 123 108 128 157 165 144 132 146 152 146 130 85 52 66
239 237 234 232 230 228 227 226 225 225 228 230 231 233 233 232 232 231 228 222 220 220 219 220 224 223 214 209 204 199 203 208 208 208 209 202 195 197 199 197 195 195 194 192 189 185 183 184 186 187 190 200 212 210 206 209 208 196 164 167 185 193 195 189 185 186 184 180 178 170 154 134 110 114 147 166 162 140 137 138 133 120 83 68 87
237 235 234 234 233 232 232 231 228 228 230 231 230 230 232 232 232 232 230 226 221 218 217 220 224 219 208 201 196 193 198 204 206 207 206 201 200 204 206 204 200 196 194 192 190 188 187 187 190 192 193 200 211 216 214 211 202 189 177 166 173 190 199 197 192 192 190 187 186 178 166 157 142 118 129 151 163 161 149 140 131 114 88 86 103
235 236 237 238 237 234 232 230 229 231 232 231 228 229 231 233 234 233 231 230 226 220 217 219 222 217 205 197 192 192 195 198 203 204 199 197 202 208 209 208 203 198 195 193 190 189 190 189 191 194 197 208 218 220 217 212 201 192 196 194 175 180 193 202 203 190 184 182 178 172 170 171 173 155 136 139 147 159 163 155 143 122 102 103 114
238 239 239 238 236 232 230 231 234 235 234 232 229 227 228 233 236 235 232 230 226 222 220 221 221 216 207 197 192 191 193 195 201 202 198 199 206 212 213 212 208 203 199 194 191 192 194 194 194 196 204 221 229 225 220 219 214 207 208 209 204 190 188 197 195 182 180 182 179 171 172 174 178 198 175 149 138 142 155 158 150 132 116 113 119
240 239 237 235 234 232 233 235 236 233 230 228 227 227 229 233 235 233 231 230 227 224 223 223 222 221 215 205 195 193 195 199 202 203 203 205 209 212 214 213 210 208 203 196 193 196 198 199 200 201 209 225 231 227 226 226 222 221 222 219 221 228 220 203 189 176 177 186 189 185 185 184 172 176 185 170 146 138 146 156 155 143 129 119 117
235 235 232 230 230 231 233 235 235 232 229 226 224 224 228 233 235 232 229 227 226 225 224 224 226 226 220 211 203 200 201 204 207 207 206 208 210 213 215 214 212 209 203 198 197 199 201 204 204 204 211 224 227 224 225 223 218 222 225 222 225 231 216 196 189 182 179 185 191 194 196 195 185 174 177 176 162 144 140 146 149 143 132 122 117
237 236 233 229 228 230 232 234 235 235 233 230 227 226 229 234 236 232 227 224 224 224 224 227 230 229 222 216 214 213 211 212 213 213 213 214 215 216 217 217 216 211 203 198 199 201 203 206 207 208 217 229 231 225 221 214 211 218 217 206 205 203 187 179 183 188 186 184 188 195 199 199 192 174 166 164 162 153 143 140 142 144 141 134 130
239 237 236 233 231 232 233 234 235 237 237 235 231 230 234 237 235 230 226 224 223 223 225 230 234 231 224 222 224 226 225 225 224 223 222 222 223 223 223 221 219 214 206 202 202 204 206 210 212 214 221 230 235 232 223 214 211 215 208 194 187 183 178 178 183 191 194 188 186 192 196 196 190 177 165 159 159 161 159 152 145 147 157 161 161
236 235 235 235 234 234 236 238 241 242 241 237 234 234 237 236 231 225 223 222 222 224 228 234 234 229 224 225 227 229 230 233 233 232 232 232 231 230 228 225 222 217 210 205 205 207 210 213 213 213 222 231 233 231 225 219 216 214 207 200 195 191 186 182 179 184 198 204 197 194 195 197 196 189 180 176 177 178 178 175 166 154 174 196 199
233 234 235 236 237 239 242 245 245 242 237 233 232 233 234 231 227 223 221 221 222 226 232 236 233 227 223 224 227 230 231 233 234 235 235 235 234 232 229 226 224 219 212 208 206 208 213 214 212 214 225 232 229 225 225 227 227 224 217 211 208 202 195 188 181 181 200 213 208 200 196 197 195 188 183 187 192 191 189 189 185 178 182 196 199
233 235 238 239 240 244 248 247 241 232 226 224 226 228 228 225 223 221 220 220 224 230 235 235 232 227 224 224 226 229 231 233 234 235 234 233 231 228 226 226 224 219 214 211 210 210 213 214 212 216 227 229 222 221 225 229 231 231 230 224 216 209 203 199 193 191 202 215 214 209 203 197 190 185 185 193 200 199 198 203 205 204 200 190 186
239 238 241 242 243 248 248 239 226 217 215 216 219 222 223 222 222 221 221 223 228 233 235 233 230 228 228 226 227 230 233 234 235 234 232 229 226 224 223 223 223 220 217 214 212 212 215 218 217 218 223 225 220 218 222 226 227 227 228 227 219 211 207 206 203 201 206 215 218 214 210 202 194 190 193 199 201 201 206 214 219 219 218 210 199
249 246 249 250 248 248 245 235 222 214 212 212 215 218 221 222 222 223 224 227 232 235 234 232 230 230 230 229 230 233 236 236 234 232 228 225 223 222 221 221 221 220 219 216 213 213 217 223 224 223 223 225 223 220 221 225 224 221 220 219 214 209 207 208 208 208 213 221 221 212 204 200 198 198 200 202 201 201 207 214 216 219 223 222 217
255 251 254 256 253 250 246 240 231 221 213 211 213 216 220 222 224 225 227 229 232 234 234 234 233 233 232 231 231 232 234 236 236 232 228 224 222 222 221 220 220 220 219 217 216 216 219 226 229 228 224 223 224 223 222 223 223 219 215 213 211 209 208 210 213 216 221 229 230 215 201 198 199 198 200 204 207 209 210 209 209 213 224 230 229
257 252 252 254 255 253 249 243 238 230 222 216 214 215 218 222 224 225 227 228 230 231 233 235 235 235 235 234 232 230 230 233 235 235 231 227 224 223 223 222 221 220 219 219 218 219 222 227 230 228 223 221 223 225 224 222 219 217 214 213 214 215 214 215 219 223 228 235 238 228 213 207 206 203 202 205 211 219 220 212 206 208 221 230 229
254 251 248 248 252 254 253 248 242 234 227 223 221 220 219 221 223 225 226 226 227 229 233 236 236 236 236 236 233 228 225 226 229 231 232 230 227 225 224 223 221 218 217 218 218 219 222 226 228 226 223 223 227 229 228 222 218 216 215 215 218 221 221 221 223 225 228 233 237 234 227 221 218 217 215 212 214 220 223 217 212 214 221 228 231
247 246 245 246 250 253 255 255 248 238 229 225 225 226 224 223 223 223 222 223 225 228 233 236 237 236 236 234 230 226 223 223 224 226 228 229 228 226 225 224 223 219 216 217 218 219 222 224 224 224 225 228 230 232 229 221 216 216 218 219 222 225 227 228 228 227 227 229 231 233 233 229 226 226 226 222 220 222 224 224 224 225 227 231 236
240 237 237 241 245 249 251 253 250 243 233 226 224 225 227 227 226 223 221 222 225 229 234 237 237 235 234 233 230 228 229 229 228 228 229 229 229 228 227 225 224 222 220 221 223 223 223 222 222 222 225 229 231 231 227 220 215 217 222 224 225 227 230 232 232 232 231 231 232 234 234 231 228 229 231 229 227 225 225 226 229 230 231 234 238